Middlesboro, KY

1:32 AM EST on January 19, 2017 (GMT -0500)
Middlesboro

Weather History for K1A6 - January, 2014

Change the Weather History Date:

Friday, January 17, 2014

  Actual Average (KLOZ) Record (KLOZ)
Temperature  
Mean Temperature 30 °F -  
Max Temperature 40 °F 41 °F 69 °F (1974)
Min Temperature 21 °F 24 °F -15 °F (1982)
Degree Days  
Heating Degree Days 34    
Moisture  
Dew Point 22 °F    
Average Humidity 68    
Maximum Humidity 92    
Minimum Humidity 43    
Precipitation  
Precipitation 0.00 in - - ()
Sea Level Pressure  
Sea Level Pressure 29.93 in    
Wind  
Wind Speed 7 mph (West)    
Max Wind Speed 18 mph    
Max Gust Speed 24 mph    
Visibility 9 miles    
Events Snow    
Averages and records for this station are not official NWS values.
T = Trace of Precipitation, MM = Missing Value Source: NWS Daily Summary

Daily Weather History Graph

Daily Weather History Graph

Search for Another Location

Airport or City:

Trip Planner

Search our weather history database for the weather conditions in past years. The results will help you decide how hot, cold, wet, or windy it might be!

Date:

Astronomy

Jan. 17, 2014 Rise Set
Actual Time 6:45 AM CST 4:44 PM CST
Civil Twilight 6:17 AM CST 5:12 PM CST
Nautical Twilight 5:45 AM CST 5:44 PM CST
Astronomical Twilight 5:14 AM CST 6:15 PM CST
Moon 6:26 PM CST (1/17) 7:16 AM CST (1/17)
Length of Visible Light 10h 55m
Length of Day
9h 59m
Full, 98% of the Moon is Illuminated
Jan 17
Full
Jan 23
Last Quarter
Jan 30
New
Feb 6
First Quarter
Feb 14
Full

Hourly Weather History & Observations

Time (CST) Temp. Windchill Dew Point Humidity Pressure Visibility Wind Dir Wind Speed Gust Speed Precip Events Conditions
12:15 AM 38.1 °F 29.5 °F 17.2 °F 43% 29.86 in 10.0 mi SSW 15.0 mph 20.7 mph N/A   Scattered Clouds
12:35 AM 38.3 °F 31.9 °F 17.2 °F 43% 29.85 in 10.0 mi SW 9.2 mph 21.9 mph N/A   Scattered Clouds
12:55 AM 38.3 °F 32.5 °F 17.4 °F 43% 29.86 in 10.0 mi SW 8.1 mph 17.3 mph N/A   Mostly Cloudy
1:15 AM 38.3 °F 31.4 °F 17.6 °F 43% 29.86 in 10.0 mi SSW 10.4 mph 16.1 mph N/A   Overcast
1:35 AM 37.8 °F 31.3 °F 18.9 °F 47% 29.87 in 10.0 mi SSW 9.2 mph 16.1 mph N/A   Overcast
1:55 AM 37.2 °F 32.6 °F 23.2 °F 57% 29.88 in 7.0 mi West 5.8 mph - N/A Snow Light Snow
2:15 AM 34.7 °F - 26.4 °F 72% 29.87 in 10.0 mi Calm Calm - N/A   Mostly Cloudy
2:35 AM 33.3 °F - 25.0 °F 72% 29.87 in 10.0 mi Calm Calm - N/A   Scattered Clouds
2:55 AM 31.8 °F - 26.4 °F 80% 29.87 in 10.0 mi Calm Calm - N/A   Clear
3:15 AM 34.2 °F 28.2 °F 25.0 °F 69% 29.87 in 10.0 mi SSW 6.9 mph - N/A   Mostly Cloudy
3:35 AM 33.3 °F - 26.2 °F 75% 29.87 in 10.0 mi Calm Calm - N/A   Overcast
3:55 AM 32.0 °F - 26.6 °F 80% 29.86 in 10.0 mi Calm Calm - N/A   Scattered Clouds
4:15 AM 33.1 °F - 26.6 °F 77% 29.86 in 10.0 mi Calm Calm - N/A   Mostly Cloudy
4:35 AM 32.7 °F - 26.4 °F 78% 29.86 in 10.0 mi Calm Calm - N/A   Overcast
4:55 AM 33.3 °F - 26.4 °F 76% 29.86 in 10.0 mi Calm Calm - N/A   Overcast
5:15 AM 31.3 °F - 27.1 °F 85% 29.86 in 10.0 mi Calm Calm - N/A   Mostly Cloudy
5:35 AM 29.8 °F - 26.6 °F 88% 29.87 in 10.0 mi Calm Calm - N/A   Clear
5:55 AM 29.5 °F 25.9 °F 26.1 °F 87% 29.87 in 10.0 mi SW 3.5 mph - N/A   Clear
6:15 AM 27.7 °F - 25.5 °F 92% 29.87 in 10.0 mi Calm Calm - N/A   Clear
6:35 AM 30.7 °F 27.3 °F 24.3 °F 77% 29.88 in 10.0 mi SW 3.5 mph - N/A   Clear
6:55 AM 28.4 °F 23.3 °F 24.8 °F 86% 29.87 in 10.0 mi South 4.6 mph - N/A   Clear
7:15 AM 30.6 °F 24.7 °F 23.7 °F 76% 29.87 in 10.0 mi South 5.8 mph - N/A   Clear
7:35 AM 29.7 °F - 25.2 °F 83% 29.87 in 10.0 mi Calm Calm - N/A   Clear
7:55 AM 34.9 °F - 22.6 °F 61% 29.87 in 10.0 mi Calm Calm - N/A   Scattered Clouds
8:15 AM 35.6 °F 29.9 °F 22.8 °F 60% 29.87 in 10.0 mi SSW 6.9 mph - N/A   Mostly Cloudy
8:35 AM 36.5 °F 31.0 °F 22.8 °F 58% 29.87 in 10.0 mi SSW 6.9 mph - N/A   Mostly Cloudy
8:55 AM 37.4 °F 32.8 °F 22.8 °F 56% 29.89 in 10.0 mi SSW 5.8 mph - N/A   Mostly Cloudy
9:15 AM 37.8 °F 32.5 °F 23.7 °F 57% 29.89 in 10.0 mi South 6.9 mph - N/A   Overcast
9:35 AM 38.3 °F 33.9 °F 23.9 °F 56% 29.88 in 10.0 mi SSE 5.8 mph - N/A   Overcast
9:55 AM 39.9 °F 36.7 °F 24.8 °F 55% 29.88 in 10.0 mi South 4.6 mph - N/A   Overcast
10:15 AM 40.6 °F 36.0 °F 24.8 °F 53% 29.88 in 10.0 mi SSW 6.9 mph - N/A   Overcast
10:35 AM 40.5 °F 33.2 °F 27.3 °F 59% 29.88 in 10.0 mi WNW 12.7 mph - N/A   Overcast
10:55 AM 39.4 °F 32.7 °F 26.6 °F 60% 29.87 in 10.0 mi West 10.4 mph - N/A   Overcast
11:15 AM 38.7 °F 34.3 °F 26.2 °F 61% 29.86 in 10.0 mi WSW 5.8 mph - N/A   Unknown
11:35 AM 39.2 °F 35.9 °F 25.3 °F 58% 29.85 in 10.0 mi WSW 4.6 mph - N/A   Overcast
11:55 AM 39.6 °F 36.3 °F 23.9 °F 54% 29.84 in 10.0 mi SW 4.6 mph - N/A   Overcast
12:15 PM 39.4 °F 32.3 °F 24.6 °F 56% 29.84 in 10.0 mi WNW 11.5 mph 16.1 mph N/A   Overcast
12:35 PM 39.7 °F 33.7 °F 24.6 °F 55% 29.84 in 10.0 mi WNW 9.2 mph - N/A   Overcast
12:55 PM 39.6 °F 32.5 °F 24.3 °F 54% 29.84 in 10.0 mi West 11.5 mph 17.3 mph N/A   Overcast
1:15 PM 37.0 °F 27.0 °F 26.1 °F 65% 29.86 in 10.0 mi NW 18.4 mph 24.2 mph N/A   Overcast
1:35 PM 33.1 °F 24.9 °F 28.8 °F 84% 29.88 in 1.2 mi WNW 10.4 mph 24.2 mph N/A Snow Light Snow
1:55 PM 34.0 °F 26.6 °F 26.6 °F 74% 29.89 in 10.0 mi NNW 9.2 mph - N/A   Overcast
2:15 PM 33.4 °F 26.6 °F 26.8 °F 77% 29.90 in 10.0 mi West 8.1 mph - N/A   Overcast
2:35 PM 32.4 °F 24.0 °F 26.2 °F 78% 29.92 in 4.0 mi WNW 10.4 mph 19.6 mph N/A Snow Light Snow
2:55 PM 32.5 °F 26.2 °F 23.7 °F 70% 29.92 in 10.0 mi NW 6.9 mph 16.1 mph N/A   Overcast
3:15 PM 33.1 °F 24.9 °F 22.1 °F 64% 29.93 in 10.0 mi WNW 10.4 mph 16.1 mph N/A   Overcast
3:35 PM 32.5 °F 26.2 °F 20.3 °F 61% 29.93 in 10.0 mi West 6.9 mph - N/A   Overcast
3:55 PM 32.2 °F 26.7 °F 19.0 °F 58% 29.94 in 10.0 mi WSW 5.8 mph - N/A   Mostly Cloudy
4:15 PM 32.0 °F 24.2 °F 18.7 °F 58% 29.95 in 10.0 mi WNW 9.2 mph 17.3 mph N/A   Mostly Cloudy
4:35 PM 31.3 °F 24.7 °F 19.8 °F 62% 29.97 in 10.0 mi NNW 6.9 mph - N/A   Overcast
4:55 PM 29.7 °F 20.7 °F 21.2 °F 71% 29.98 in 10.0 mi NW 10.4 mph - N/A   Overcast
5:15 PM 28.4 °F 23.3 °F 22.6 °F 79% 30.00 in 3.0 mi NW 4.6 mph - N/A Snow Light Snow
5:35 PM 28.0 °F 19.3 °F 22.8 °F 81% 30.01 in 4.0 mi NW 9.2 mph - N/A Snow Light Snow
5:55 PM 26.4 °F 17.3 °F 20.8 °F 79% 30.03 in 4.0 mi WNW 9.2 mph 17.3 mph N/A Snow Light Snow
6:15 PM 25.5 °F 18.7 °F 19.9 °F 79% 30.04 in 5.0 mi WNW 5.8 mph - N/A Snow Light Snow
6:35 PM 25.3 °F 16.7 °F 19.9 °F 80% 30.05 in 5.0 mi WNW 8.1 mph - N/A Snow Light Snow
6:55 PM 25.2 °F 14.4 °F 18.7 °F 76% 30.05 in 7.0 mi NW 11.5 mph - N/A Snow Light Snow
7:15 PM 24.4 °F 14.2 °F 17.6 °F 75% 30.06 in 7.0 mi NW 10.4 mph - N/A Snow Light Snow
7:35 PM 23.9 °F 14.2 °F 18.3 °F 79% 30.07 in 7.0 mi WNW 9.2 mph - N/A Snow Light Snow
7:55 PM 23.4 °F 13.5 °F 17.4 °F 78% 30.07 in 5.0 mi NW 9.2 mph - N/A Snow Light Snow
8:15 PM 22.8 °F 10.9 °F 17.4 °F 80% 30.08 in 4.0 mi NW 12.7 mph 17.3 mph N/A Snow Light Snow
8:35 PM 22.6 °F 12.6 °F 16.3 °F 77% 30.08 in 7.0 mi NW 9.2 mph - N/A Snow Light Snow
8:55 PM 22.6 °F 15.3 °F 16.2 °F 76% 30.08 in 7.0 mi NW 5.8 mph - N/A Snow Light Snow
9:15 PM 22.5 °F 16.3 °F 15.8 °F 76% 30.07 in 10.0 mi NNW 4.6 mph - N/A Snow Light Snow
9:35 PM 22.3 °F 16.1 °F 14.7 °F 73% 30.07 in 10.0 mi NW 4.6 mph - N/A   Overcast
9:55 PM 22.1 °F 13.7 °F 13.3 °F 69% 30.07 in 10.0 mi West 6.9 mph - N/A   Overcast
10:15 PM 22.1 °F 15.9 °F 13.8 °F 70% 30.07 in 10.0 mi NW 4.6 mph - N/A   Overcast
10:35 PM 21.9 °F 17.2 °F 13.1 °F 69% 30.07 in 10.0 mi West 3.5 mph - N/A   Overcast
10:55 PM 22.1 °F 15.9 °F 12.6 °F 67% 30.07 in 10.0 mi WNW 4.6 mph - N/A   Overcast
11:15 PM 21.9 °F 15.7 °F 12.4 °F 67% 30.06 in 10.0 mi WNW 4.6 mph - N/A   Overcast
11:35 PM 21.9 °F 12.5 °F 12.0 °F 66% 30.06 in 10.0 mi WNW 8.1 mph - N/A   Overcast
11:55 PM 21.9 °F 13.4 °F 12.2 °F 66% 30.06 in 10.0 mi WNW 6.9 mph - N/A   Overcast